Location: Newark
(41.7300°N, 13.7500°E)
Time: 10:02:53
(UTC+00:00)

Hubble Space Telescope - Visible Passes

Search period start: 30 September 2020 00:00
Search period end: 10 October 2020 00:00
Orbit: 536 x 540 km, 28.5° (Epoch: 29 September)

Date Brightness Start Highest point End Pass type
(mag) Time Alt. Az. Time Alt. Az. Time Alt. Az.
30 Sep 3.1 03:49:36 10° SSW 03:51:25 13° S 03:53:15 10° SSE visible
01 Oct 3.0 03:39:33 12° SSW 03:40:33 12° S 03:42:16 10° SSE visible
02 Oct 3.1 03:29:31 12° S 03:29:41 12° S 03:31:11 10° SSE visible
03 Oct 3.2 03:19:32 10° S 03:19:32 10° S 03:19:54 10° S visible
